CW4352 Weather Reports


Display with metric or nautical units.
time (UTC)temp
F
wind
direction
speed
MPH
gust
MPH
rain 1hr
in
rain 24hr
in
rain mn
in
humidity
%
barometer
mb
20260504220203 62 30 1.0 5.0 0.00 0.00 0.00 46 1010.4
20260504213204 61 30 0.0 3.0 0.00 0.00 0.00 46 1010.6
20260504211703 61 30 0.0 2.0 0.00 0.00 0.00 46 1010.6
20260504210204 61 30 0.0 3.0 0.00 0.00 0.00 46 1010.6
20260504204704 61 30 1.0 5.0 0.00 0.00 0.00 46 1010.6
20260504204203 61 30 0.0 3.0 0.00 0.00 0.00 47 1010.6
20260504200203 62 30 1.0 3.0 0.00 0.00 0.00 44 1010.5
20260504194203 63 30 2.0 3.0 0.00 0.00 0.00 47 1009.5
20260504193204 63 30 2.0 5.0 0.00 0.00 0.00 49 1009.5
20260504191703 63 30 0.0 2.0 0.00 0.00 0.00 52 1009.5
20260504190704 63 30 2.0 3.0 0.00 0.00 0.00 52 1009.5
20260504190204 64 30 1.0 3.0 0.00 0.00 0.00 51 1009.5
20260504184204 66 30 1.0 5.0 0.00 0.00 0.00 43 1009.5
20260504181703 70 30 0.0 0.0 0.00 0.00 0.00 40 1009.3
20260504180204 71 30 0.0 2.0 0.00 0.00 0.00 39 1009.3
20260504173706 72 30 0.0 1.0 0.00 0.00 0.00 37 1009.4
20260504173205 72 30 1.0 6.0 0.00 0.00 0.00 38 1009.4
20260504171205 72 30 1.0 3.0 0.00 0.00 0.00 42 1009.5
20260504150705 75 39 0.0 2.0 0.00 0.00 0.00 33 1010.1
20260504141205 75 40 2.0 5.0 0.00 0.00 0.00 33 1010.5
20260504140706 75 40 0.0 3.0 0.00 0.00 0.00 33 1010.6
20260504140205 75 42 1.0 3.0 0.00 0.00 0.00 36 1010.6
20260504130705 75 43 2.0 3.0 0.00 0.00 0.00 34 1011.1
20260504120205 73 24 1.0 3.0 0.00 0.00 0.00 31 1011.6
20260504081705 68 9 1.0 3.0 0.00 0.00 0.00 40 1012.6
20260504081205 67 9 1.0 3.0 0.00 0.00 0.00 41 1012.6
20260504080705 67 9 1.0 3.0 0.00 0.00 0.00 41 1012.6
20260504060205 59 9 0.0 2.0 0.00 0.00 0.00 56 1011.8
20260504044205 55 9 1.0 3.0 0.00 0.00 0.00 47 1011.2
20260504043705 55 9 1.0 3.0 0.00 0.00 0.00 46 1011.2
20260504043206 55 9 0.0 3.0 0.00 0.00 0.00 46 1011.2
20260504041705 54 9 3.0 6.0 0.00 0.00 0.00 47 1011.2
20260504041205 54 10 2.0 5.0 0.00 0.00 0.00 49 1011.2
20260504040205 53 17 2.0 5.0 0.00 0.00 0.00 51 1011.2
20260504031205 53 19 0.0 0.0 0.00 0.00 0.00 59 1011.6
20260504030205 53 19 0.0 2.0 0.00 0.00 0.00 56 1011.6
20260504024705 53 19 0.0 2.0 0.00 0.00 0.00 57 1011.6
20260504023205 53 19 0.0 2.0 0.00 0.00 0.00 55 1011.6
20260504021705 53 19 0.0 2.0 0.00 0.00 0.00 56 1011.6
20260504021205 53 19 0.0 0.0 0.00 0.00 0.00 57 1011.6
20260504014705 54 19 1.0 3.0 0.00 0.00 0.00 62 1011.6
20260504014205 54 19 1.0 3.0 0.00 0.00 0.00 62 1011.6
20260504013205 55 19 0.0 3.0 0.00 0.00 0.00 61 1011.7
20260504011704 56 19 0.0 2.0 0.00 0.00 0.00 58 1011.7
20260504011205 57 19 0.0 1.0 0.00 0.00 0.00 57 1011.7
20260504010705 57 19 0.0 0.0 0.00 0.00 0.00 57 1011.7
20260504004205 59 19 0.0 0.0 0.00 0.00 0.00 50 1011.7
20260504003705 59 19 0.0 0.0 0.00 0.00 0.00 50 1011.7
20260504000205 60 19 0.0 3.0 0.00 0.00 0.00 48 1011.9
20260503234704 61 19 0.0 2.0 0.00 0.00 0.00 48 1011.9
20260503234205 61 19 0.0 0.0 0.00 0.00 0.00 47 1012.1
20260503231705 61 19 0.0 2.0 0.00 0.00 0.00 49 1012.1
20260503231204 61 19 0.0 2.0 0.00 0.00 0.00 49 1012.1
20260503230706 61 19 0.0 2.0 0.00 0.00 0.00 49 1012.1
20260503224204 61 19 1.0 3.0 0.00 0.00 0.00 50 1012.1
20260503223704 61 19 0.0 0.0 0.00 0.00 0.00 51 1012.1
20260503223205 61 19 0.0 1.0 0.00 0.00 0.00 51 1012.1
20260503221705 61 19 0.0 1.0 0.00 0.00 0.00 51 1012.1
20260503220706 61 19 0.0 2.0 0.00 0.00 0.00 52 1012.0